User: anonymous   Login
Location: Finkenwalde
(53.3770°N, 14.6418°E)
Time: 01:31:37
(UTC+00:00)
Language:

ATLAS 2AS CENTAUR R/B - Orbit

View from above orbital plane
View from above orbital plane
View from above satellite
View from above satellite

Ground track
Ground track

The orbit data is extracted from the following two-line orbital elements,

1 28096U 03054B   24201.61602224 -.00000002  00000-0  14850-3 0  9993
2 28096  63.6808 356.1905 0115351 167.3817 193.0141 13.40979479  8871
Epoch (UTC): 19 July 2024 14:47:04
Eccentricity: 0.0115351
inclination: 63.6808°
perigee height: 1019 km
apogee height: 1192 km
right ascension of ascending node: 356.1905°
argument of perigee: 167.3817°
revolutions per day: 13.40979479
mean anomaly at epoch: 193.0141°
orbit number at epoch: 887

The dashed part of the orbit path shows where the satellite is in the earth's shadow,  

DLR